Previsão horária em Santarém

Hoje, 17 Janeiro, Domingo

Tempo Temperatura Precipitação Vento Pressão Humidade
00:00 +4°C° 0 mm 0 m/s 770 mmHg 82%
01:00 +5°C° 0 mm 1 m/s 769 mmHg 81%
02:00 +5°C° 0 mm 1 m/s 769 mmHg 81%
03:00 +5°C° 0 mm 1 m/s 769 mmHg 81%
04:00 +4°C° 0 mm 1 m/s 769 mmHg 81%
05:00 +4°C° 0 mm 1 m/s 769 mmHg 84%
06:00 +5°C° 0 mm 1 m/s 769 mmHg 81%
07:00 +5°C° 0 mm 1 m/s 769 mmHg 78%
08:00 +6°C° 0 mm 1 m/s 770 mmHg 76%
09:00 +9°C° 0 mm 1 m/s 770 mmHg 68%
10:00 +10°C° 0 mm 2 m/s 770 mmHg 61%
11:00 +14°C° 0 mm 1 m/s 770 mmHg 54%
12:00 +15°C° 0 mm 1 m/s 769 mmHg 52%
13:00 +16°C° 0 mm 1 m/s 769 mmHg 51%
14:00 +16°C° 0 mm 1 m/s 768 mmHg 49%
15:00 +14°C° 0 mm 1 m/s 768 mmHg 58%
16:00 +12°C° 0 mm 1 m/s 768 mmHg 67%
17:00 +9°C° 0 mm 1 m/s 768 mmHg 76%
18:00 +9°C° 0 mm 1 m/s 768 mmHg 77%
19:00 +8°C° 0 mm 1 m/s 768 mmHg 78%
20:00 +8°C° 0 mm 1 m/s 768 mmHg 79%
21:00 +7°C° 0 mm 1 m/s 768 mmHg 79%
22:00 +7°C° 0 mm 1 m/s 768 mmHg 78%
23:00 +7°C° 0 mm 1 m/s 768 mmHg 77%

Amanhã, 18 Janeiro, Segunda-feira

Tempo Temperatura Precipitação Vento Pressão Humidade
00:00 +6°C° 0 mm 1 m/s 768 mmHg 77%
01:00 +6°C° 0 mm 1 m/s 768 mmHg 78%
02:00 +5°C° 0 mm 1 m/s 767 mmHg 78%
03:00 +5°C° 0 mm 1 m/s 767 mmHg 79%
04:00 +5°C° 0 mm 1 m/s 767 mmHg 79%
05:00 +4°C° 0 mm 2 m/s 767 mmHg 79%
06:00 +4°C° 0 mm 2 m/s 767 mmHg 78%
07:00 +5°C° 0 mm 2 m/s 767 mmHg 76%
08:00 +5°C° 0 mm 2 m/s 768 mmHg 75%
09:00 +8°C° 0 mm 2 m/s 768 mmHg 67%
10:00 +10°C° 0 mm 2 m/s 768 mmHg 60%
11:00 +13°C° 0 mm 2 m/s 768 mmHg 53%
12:00 +14°C° 0 mm 2 m/s 767 mmHg 52%
13:00 +15°C° 0 mm 2 m/s 766 mmHg 51%
14:00 +16°C° 0 mm 1 m/s 765 mmHg 50%
15:00 +13°C° 0 mm 1 m/s 766 mmHg 58%
16:00 +11°C° 0 mm 1 m/s 766 mmHg 66%
17:00 +9°C° 0 mm 1 m/s 766 mmHg 74%
18:00 +9°C° 0 mm 1 m/s 766 mmHg 77%
19:00 +8°C° 0 mm 1 m/s 766 mmHg 80%
20:00 +7°C° 0 mm 1 m/s 766 mmHg 83%
21:00 +7°C° 0 mm 1 m/s 766 mmHg 85%
22:00 +7°C° 0 mm 1 m/s 767 mmHg 87%
23:00 +5°C° 0 mm 2 m/s 767 mmHg 88%

Depois de amanhã, 19 Janeiro, Terça-feira

Tempo Temperatura Precipitação Vento Pressão Humidade
00:00 +5°C° 0 mm 2 m/s 766 mmHg 89%
01:00 +5°C° 0 mm 2 m/s 766 mmHg 90%
02:00 +4°C° 0 mm 2 m/s 765 mmHg 91%
03:00 +4°C° 0 mm 2 m/s 765 mmHg 91%
04:00 +5°C° 0 mm 2 m/s 765 mmHg 91%
05:00 +5°C° 0 mm 2 m/s 765 mmHg 91%
06:00 +5°C° 0 mm 2 m/s 765 mmHg 90%
07:00 +6°C° 0 mm 2 m/s 765 mmHg 88%
08:00 +6°C° 0 mm 2 m/s 765 mmHg 86%
09:00 +8°C° 0 mm 2 m/s 764 mmHg 84%
10:00 +9°C° 0 mm 2 m/s 764 mmHg 81%
11:00 +10°C° 0 mm 3 m/s 764 mmHg 78%
12:00 +11°C° 0 mm 3 m/s 763 mmHg 76%
13:00 +12°C° 0 mm 4 m/s 762 mmHg 74%
14:00 +13°C° 0 mm 4 m/s 762 mmHg 72%
15:00 +13°C° 0 mm 4 m/s 761 mmHg 75%
16:00 +12°C° 0 mm 4 m/s 761 mmHg 78%
17:00 +12°C° 0 mm 4 m/s 760 mmHg 81%
18:00 +11°C° 0 mm 4 m/s 760 mmHg 82%
19:00 +11°C° 0 mm 4 m/s 759 mmHg 83%
20:00 +10°C° 0 mm 5 m/s 759 mmHg 84%
21:00 +10°C° 0.1 mm 5 m/s 758 mmHg 85%
22:00 +10°C° 0.1 mm 6 m/s 758 mmHg 86%
23:00 +11°C° 0.1 mm 6 m/s 757 mmHg 86%

20 Janeiro, Quarta-feira

Tempo Temperatura Precipitação Vento Pressão Humidade
00:00 +11°C° 1.7 mm 6 m/s 756 mmHg 89%
01:00 +11°C° 1.7 mm 7 m/s 755 mmHg 91%
02:00 +11°C° 1.7 mm 7 m/s 754 mmHg 94%
03:00 +11°C° 2.6 mm 7 m/s 753 mmHg 92%
04:00 +11°C° 2.6 mm 7 m/s 752 mmHg 90%
05:00 +11°C° 2.6 mm 7 m/s 752 mmHg 89%
06:00 +11°C° 0.5 mm 6 m/s 752 mmHg 90%
07:00 +12°C° 0.5 mm 5 m/s 752 mmHg 92%
08:00 +12°C° 0.5 mm 4 m/s 752 mmHg 94%
09:00 +13°C° 0.3 mm 5 m/s 752 mmHg 88%
10:00 +14°C° 0.3 mm 6 m/s 752 mmHg 83%
11:00 +15°C° 0.3 mm 8 m/s 752 mmHg 77%
12:00 +15°C° 0.6 mm 8 m/s 752 mmHg 79%
13:00 +13°C° 0.6 mm 8 m/s 752 mmHg 82%
14:00 +13°C° 0.6 mm 8 m/s 752 mmHg 84%
15:00 +14°C° 0.8 mm 7 m/s 752 mmHg 85%
16:00 +12°C° 0.8 mm 7 m/s 753 mmHg 87%
17:00 +13°C° 0.8 mm 6 m/s 753 mmHg 89%
18:00 +13°C° 0.2 mm 6 m/s 754 mmHg 90%
19:00 +12°C° 0.2 mm 5 m/s 754 mmHg 92%
20:00 +12°C° 0.2 mm 4 m/s 755 mmHg 93%
21:00 +12°C° 0.1 mm 4 m/s 755 mmHg 93%
22:00 +12°C° 0.1 mm 4 m/s 756 mmHg 94%
23:00 +11°C° 0.1 mm 4 m/s 756 mmHg 94%

21 Janeiro, Quinta-feira

Tempo Temperatura Precipitação Vento Pressão Humidade
00:00 +11°C° 0.1 mm 3 m/s 756 mmHg 95%
01:00 +11°C° 0.1 mm 3 m/s 757 mmHg 95%
02:00 +11°C° 0.1 mm 3 m/s 757 mmHg 96%
03:00 +11°C° 0.1 mm 3 m/s 757 mmHg 96%
04:00 +11°C° 0.1 mm 3 m/s 757 mmHg 96%
05:00 +11°C° 0.1 mm 3 m/s 757 mmHg 96%
06:00 +11°C° 0.1 mm 3 m/s 757 mmHg 95%
07:00 +12°C° 0.1 mm 4 m/s 758 mmHg 94%
08:00 +12°C° 0.1 mm 4 m/s 758 mmHg 93%
09:00 +13°C° 0.2 mm 5 m/s 757 mmHg 91%
10:00 +13°C° 0.2 mm 6 m/s 757 mmHg 89%
11:00 +14°C° 0.2 mm 7 m/s 757 mmHg 87%
12:00 +14°C° 1.2 mm 7 m/s 757 mmHg 89%
13:00 +14°C° 1.2 mm 7 m/s 756 mmHg 91%
14:00 +14°C° 1.2 mm 7 m/s 756 mmHg 94%
15:00 +14°C° 0.3 mm 6 m/s 756 mmHg 93%
16:00 +14°C° 0.3 mm 5 m/s 756 mmHg 93%
17:00 +13°C° 0.3 mm 4 m/s 756 mmHg 93%
18:00 +13°C° 0.1 mm 4 m/s 756 mmHg 94%
19:00 +13°C° 0.1 mm 3 m/s 757 mmHg 94%
20:00 +13°C° 0.1 mm 3 m/s 757 mmHg 95%
21:00 +12°C° 0.4 mm 3 m/s 757 mmHg 95%
22:00 +12°C° 0.4 mm 3 m/s 757 mmHg 95%
23:00 +12°C° 0.4 mm 3 m/s 757 mmHg 96%

22 Janeiro, Sexta-feira

Tempo Temperatura Precipitação Vento Pressão Humidade
00:00 +12°C° 0.2 mm 3 m/s 757 mmHg 95%
01:00 +11°C° 0.2 mm 3 m/s 758 mmHg 95%
02:00 +11°C° 0.2 mm 3 m/s 758 mmHg 95%
03:00 +11°C° 0.1 mm 3 m/s 758 mmHg 94%
04:00 +11°C° 0.1 mm 4 m/s 758 mmHg 94%
05:00 +10°C° 0.1 mm 4 m/s 758 mmHg 93%
06:00 +11°C° 0.1 mm 4 m/s 759 mmHg 91%
07:00 +11°C° 0.1 mm 4 m/s 759 mmHg 90%
08:00 +11°C° 0.1 mm 4 m/s 760 mmHg 88%
09:00 +12°C° 0.3 mm 5 m/s 761 mmHg 83%
10:00 +12°C° 0.3 mm 7 m/s 761 mmHg 78%
11:00 +13°C° 0.3 mm 8 m/s 762 mmHg 73%
12:00 +14°C° 0.2 mm 7 m/s 762 mmHg 72%
13:00 +14°C° 0.2 mm 7 m/s 762 mmHg 72%
14:00 +14°C° 0.2 mm 6 m/s 762 mmHg 71%
15:00 +12°C° 0 mm 5 m/s 763 mmHg 76%
16:00 +11°C° 0 mm 4 m/s 763 mmHg 81%
17:00 +10°C° 0 mm 3 m/s 764 mmHg 86%
18:00 +9°C° 0 mm 2 m/s 764 mmHg 88%
19:00 +9°C° 0 mm 2 m/s 765 mmHg 89%
20:00 +8°C° 0 mm 2 m/s 766 mmHg 91%
21:00 +8°C° 0 mm 2 m/s 766 mmHg 91%
22:00 +8°C° 0 mm 2 m/s 766 mmHg 91%
23:00 +9°C° 0 mm 1 m/s 766 mmHg 91%
Mostrar mais

Necessitamos do seu Consentimento

A Meteoprog e os seus Fornecedores de Serviços podem armazenar e aceder a dados pessoais como cookies, identificadores do dispositivo ou outras tecnologias semelhantes existentes no seu dispositivo e processar estes dados para personalizar conteúdos e anúncios, assim como funcionalidades nas redes sociais e análise de tráfego.

  • Armazenar e/ou aceder a informações no seu dispositivo

    Os cookies, identificadores do dispositivo ou outras informações podem ser armazenados ou acedidos no seu dispositivo, para os fins acima indicados.

  • Anúncios e conteúdos personalizados, medição de anúncios e conteúdos, dados sobre o público-alvo e desenvolvimento de produtos

    Os anúncios e os conteúdos podem ser personalizados com base num perfil. Podem ser adicionados dados adicionais para uma maior personalização dos anúncios e dos conteúdos. A eficácia dos anúncios e dos conteúdos pode ser medida. Podem ser obtidas informações sobre o público que visualizou os anúncios e os conteúdos. Estes dados podem ser usados para desenvolver ou melhorar sistemas, softwares ou a experiência do utilizador.

Ao clicar em "Eu concordo”, permitirá o uso de cookies, identificadores do dispositivo e web beacons mencionados ou outras tecnologias semelhantes. As configurações do navegador do seu dispositivo podem ser alteradas.

Para certos fins, podem ser invocados interesses legítimos ao invés de consentimento. Pode ler mais informação sobre este assunto na nossa Política de Privacidade e Cookies.